Location: The Saddle
(36.8333°N, 80.3417°W)
Time: 07:25:24
(UTC-04:00)

Courier 1B - Pass Details

Date: 22 September 2024
Orbit: 962 x 1208 km, 28.3° (Epoch: 05 October)

Event Time Altitude Azimuth Distance (km) Brightness Sun altitude
Rises 15:43:10 0° 263° (W) 3,770 11.3 39.4°
Reaches altitude 10° 15:45:59 10° 255° (WSW) 2,853 11.0 39.0°
Maximum altitude 15:52:20 37° 190° (S) 1,618 9.8 38.0°
Drops below altitude 10° 15:59:02 10° 126° (SE) 3,019 10.0 36.9°
Sets 16:02:07 0° 118° (ESE) 4,014 10.5 36.4°
